Location: Bagnara
(41.0500°N, 14.7833°E)
Time: 15:30:06
(UTC+00:00)

Cosmos 1633 - Pass Details

Date: 20 June 2021
Orbit: 461 x 476 km, 82.5° (Epoch: 30 July)

Event Time Altitude Azimuth Distance (km) Brightness Sun altitude
Exits shadow 00:53:06 74° 278° (W) 485 2.4 -20.6°
Drops below altitude 10° 00:56:38 10° 4° (N) 1,621 6.2 -20.3°
Sets 00:58:43 0° 6° (N) 2,503 7.4 -20.1°
